Indianapolis, IN

7:19 PM EDT on September 16, 2019 (GMT -0400)
Indianapolis International

Weather History for KIND - May, 2019

Change the Weather History Date:

Tuesday, May 14, 2019

  Actual Average Record
Temperature  
Mean Temperature 55 °F 62 °F  
Max Temperature 69 °F 72 °F 89 °F (2018)
Min Temperature 41 °F 52 °F 33 °F (1895)
Degree Days  
Heating Degree Days 10 5  
Month to date heating degree days 100 86  
Since 1 July heating degree days 5351 5308  
Cooling Degree Days 0 2  
Month to date cooling degree days 3 18  
Year to date cooling degree days 4 33  
Growing Degree Days 5 (Base 50)    
Moisture  
Dew Point 42 °F    
Average Humidity 64    
Maximum Humidity 92    
Minimum Humidity 36    
Precipitation  
Precipitation 0.00 in 0.17 in 1.84 in (1995)
Month to date precipitation 1.34 2.28  
Year to date precipitation 18.82 14.63  
Snow  
Snow 0.00 in 0.00 in T in (1991)
Month to date snowfall 0.0 0.0  
Since 1 July snowfall 19.4 25.9  
Snow Depth 0.00 in    
Sea Level Pressure  
Sea Level Pressure 30.03 in    
Wind  
Wind Speed 3 mph (West)    
Max Wind Speed 14 mph    
Max Gust Speed 17 mph    
Visibility 9 miles    
Events      
T = Trace of Precipitation, MM = Missing Value Source: NWS Daily Summary

Daily Weather History Graph

Daily Weather History Graph

Search for Another Location

Airport or City:

Astronomy

May. 14, 2019 Rise Set
Actual Time 6:31 AM EDT 8:51 PM EDT
Civil Twilight 6:01 AM EDT 9:22 PM EDT
Nautical Twilight 5:23 AM EDT 9:59 PM EDT
Astronomical Twilight 4:42 AM EDT 10:41 PM EDT
Moon 4:13 PM EDT (5/14) 4:23 AM EDT (5/14)
Length of Visible Light 15h 20m
Length of Day
14h 20m
Waxing Gibbous, 79% of the Moon is Illuminated
May 14
Waxing Gibbous
May 18
Full
May 26
Last Quarter
Jun 3
New
Jun 10
First Quarter

Hourly Weather History & Observations

Time (EDT) Temp. Windchill Dew Point Humidity Pressure Visibility Wind Dir Wind Speed Gust Speed Precip Events Conditions
12:54 AM 45.0 °F 43.5 °F 42.1 °F 90% 30.01 in 10.0 mi West 3.5 mph - N/A   Clear
1:54 AM 45.0 °F 43.5 °F 42.1 °F 90% 30.01 in 9.0 mi West 3.5 mph - N/A   Clear
2:54 AM 44.1 °F 42.5 °F 41.0 °F 89% 30.01 in 9.0 mi West 3.5 mph - N/A   Clear
3:54 AM 42.1 °F 40.2 °F 39.9 °F 92% 30.01 in 8.0 mi WSW 3.5 mph - N/A   Clear
4:54 AM 44.1 °F 42.5 °F 41.0 °F 89% 30.01 in 10.0 mi West 3.5 mph - N/A   Clear
5:54 AM 43.0 °F - 39.9 °F 89% 30.02 in 10.0 mi Calm Calm - N/A   Clear
6:54 AM 43.0 °F 41.3 °F 39.9 °F 89% 30.04 in 8.0 mi NE 3.5 mph - N/A   Clear
7:54 AM 48.0 °F - 44.1 °F 86% 30.06 in 6.0 mi Calm Calm - N/A   Clear
8:54 AM 51.1 °F - 45.0 °F 80% 30.07 in 7.0 mi Calm Calm - N/A   Clear
9:54 AM 55.9 °F - 44.1 °F 64% 30.07 in 9.0 mi Calm Calm - N/A   Partly Cloudy
10:54 AM 61.0 °F - 44.1 °F 54% 30.08 in 10.0 mi Calm Calm - N/A   Partly Cloudy
11:54 AM 63.0 °F - 39.9 °F 43% 30.06 in 10.0 mi SW 4.6 mph - N/A   Partly Cloudy
12:54 PM 64.0 °F - 41.0 °F 43% 30.06 in 10.0 mi Variable 3.5 mph - N/A   Scattered Clouds
1:54 PM 66.9 °F - 42.1 °F 40% 30.05 in 10.0 mi Calm Calm - N/A   Mostly Cloudy
2:54 PM 66.0 °F - 42.1 °F 42% 30.03 in 10.0 mi Variable 4.6 mph - N/A   Mostly Cloudy
3:54 PM 68.0 °F - 42.1 °F 39% 30.01 in 10.0 mi NW 8.1 mph - N/A   Mostly Cloudy
4:54 PM 66.9 °F - 41.0 °F 39% 30.00 in 10.0 mi WSW 8.1 mph - N/A   Mostly Cloudy
5:54 PM 69.1 °F - 41.0 °F 36% 30.00 in 10.0 mi West 10.4 mph - N/A   Mostly Cloudy
6:54 PM 64.9 °F - 41.0 °F 42% 29.99 in 10.0 mi WNW 6.9 mph - N/A   Scattered Clouds
7:54 PM 64.9 °F - 42.1 °F 43% 29.99 in 10.0 mi WNW 5.8 mph - N/A   Scattered Clouds
8:54 PM 62.1 °F - 41.0 °F 46% 30.00 in 10.0 mi NW 4.6 mph - N/A   Partly Cloudy
9:54 PM 60.1 °F - 41.0 °F 49% 30.01 in 10.0 mi West 3.5 mph - N/A   Partly Cloudy
10:54 PM 55.0 °F - 43.0 °F 64% 30.02 in 10.0 mi Calm Calm - N/A   Clear
11:54 PM 55.0 °F - 43.0 °F 64% 30.01 in 10.0 mi WSW 3.5 mph - N/A   Clear